Location: Hyde Park
(33.9806°N, 118.3306°W)
Time: 09:47:16
(UTC+00:00)

Cosmos 773 Rocket - Pass Details

Date: 03 August 2024
Orbit: 742 x 775 km, 74.1° (Epoch: 10 September)

Event Time Altitude Azimuth Distance (km) Brightness Sun altitude
Exits shadow 12:31:35 - 214° (SW) 2,678 6.3 -7.5°
Reaches altitude 10° 12:32:43 10° 217° (SW) 2,255 5.9 -7.3°
Maximum altitude 12:37:36 46° 290° (WNW) 1,008 4.4 -6.4°
Drops below altitude 10° 12:42:34 10° 4° (N) 2,286 6.9 -5.4°
Sets 12:45:03 0° 10° (N) 3,221 7.8 -5.0°
